Back to catalog

SKYCRAFT 4D

AliveScienceSSO
NORAD 64898·PAYLOAD·🇦🇺 Australia

Launched Jul 23, 2025 from Vandenberg Space Force Base

Loading…

Next Passes (next 24 hours)

TLE

FreshSource: Space-Track

Epoch: Sep 14, 2026, 10:20 UTC

1 64898U 25154K   26257.43083807  .00003226  00000-0  28507-3 0  9995
2 64898  97.6587 319.7958 0003447 326.2942  33.8060 14.97029344 60646

Track SKYCRAFT 4D in real time with AllMySat

Download on the App Store